User: anonymous   Login
Location: Eastview
(35.0756°N, 88.5453°W)
Time: 11:39:22
(UTC+00:00)
Language:

Cosmos 2228 Rocket - Orbit

View from above orbital plane
View from above orbital plane
View from above satellite
View from above satellite

Ground track
Ground track

The orbit data is extracted from the following two-line orbital elements,

1 22287U 92094B   20018.76469152  .00000029  00000-0  72759-6 0  9993
2 22287  82.5249 276.3666 0026086 112.8623 247.5348 14.78136887458232
Epoch (UTC): 18 January 2020 18:21:09
Eccentricity: 0.0026086
inclination: 82.5249°
perigee height: 617 km
apogee height: 653 km
right ascension of ascending node: 276.3666°
argument of perigee: 112.8623°
revolutions per day: 14.78136887
mean anomaly at epoch: 247.5348°
orbit number at epoch: 45823

The dashed part of the orbit path shows where the satellite is in the earth's shadow,  

DLR